period_start,C,m1,H,J0,J1,J2,J3,J4,J5,JA,JB,JC,JD,JJ,JK,JN,#
2015-11-04 00:02:18,0.06,0.42,0.00,18.99,23.60,27.44,14.74,48.36,1014.71,2049.02,3430.36,3184.77,3469.04,599.98,603.00,8.40,0000 0000 0000 0000 000000
2015-11-04 00:07:19,0.08,0.43,0.00,19.01,23.60,27.50,14.82,48.22,1014.78,2049.02,3428.67,3183.49,3467.74,600.19,603.28,8.45,0000 0000 0000 0000 000000
2015-11-04 00:12:20,0.06,0.43,0.00,19.00,23.60,27.52,14.78,48.29,1014.95,2049.03,3427.30,3182.42,3466.64,599.64,602.79,8.50,0000 0000 0000 0000 000000
2015-11-04 00:17:22,0.07,0.43,0.00,19.00,23.60,27.47,14.82,48.13,1015.11,2049.03,3425.78,3181.18,3465.31,600.22,603.43,8.55,0000 0000 0000 0000 000000
2015-11-04 00:22:23,0.06,0.44,0.00,19.00,23.60,27.39,14.74,48.00,1015.15,2049.03,3424.47,3180.21,3464.23,599.81,603.21,8.60,0000 0000 0000 0000 000000
2015-11-04 00:27:24,0.05,0.44,0.00,19.01,23.60,27.48,14.75,48.15,1015.15,2049.02,3423.42,3179.26,3463.16,599.73,602.96,8.65,0000 0000 0000 0000 000000
2015-11-04 00:32:26,0.05,0.44,0.00,19.01,23.60,27.50,14.75,48.08,1015.15,2049.01,3422.16,3178.35,3462.17,599.87,603.18,8.70,0000 0000 0000 0000 000000
2015-11-04 00:37:27,0.05,0.44,0.00,19.00,23.60,27.49,14.80,48.06,1015.16,2049.01,3420.94,3177.52,3461.24,600.00,603.42,8.75,0000 0000 0000 0000 000000
2015-11-04 00:42:29,0.06,0.45,0.00,19.01,23.60,27.41,14.79,48.01,1015.15,2049.00,3419.75,3176.57,3460.31,599.92,603.28,8.80,0000 0000 0000 0000 000000
2015-11-04 00:47:30,0.04,0.45,0.00,19.00,23.60,27.45,14.82,48.10,1015.17,2049.01,3418.75,3175.90,3459.36,599.87,603.20,8.85,0000 0000 0000 0000 000000
2015-11-04 00:52:31,0.05,0.45,0.00,19.00,23.60,27.43,14.79,48.23,1015.18,2049.00,3417.71,3175.06,3458.59,600.16,603.49,8.90,0000 0000 0000 0000 000000
2015-11-04 00:57:33,0.05,0.45,0.00,18.99,23.60,27.44,14.74,48.34,1015.22,2049.01,3416.66,3174.23,3457.75,599.89,603.27,8.95,0000 0000 0000 0000 000000
2015-11-04 01:02:34,0.04,0.46,0.00,18.99,23.60,27.41,14.80,48.21,1015.28,2049.01,3415.72,3173.51,3456.97,599.92,603.34,9.00,0000 0000 0000 0000 000000
2015-11-04 01:07:36,0.04,0.46,0.00,19.00,23.61,27.40,14.79,48.36,1015.57,2049.00,3414.72,3172.77,3456.10,599.77,603.34,9.05,0000 0000 0000 0000 000000
2015-11-04 01:12:37,0.05,0.46,0.00,19.02,23.61,27.46,14.83,48.38,1015.64,2049.00,3413.56,3171.88,3455.21,600.66,604.28,9.10,0000 0000 0000 0000 000000
2015-11-04 01:17:38,0.05,0.47,0.00,19.02,23.62,27.46,14.77,48.13,1015.64,2049.00,3412.35,3170.99,3454.26,599.90,603.44,9.15,0000 0000 0000 0000 000000
2015-11-04 01:22:39,0.05,0.47,0.00,19.02,23.62,27.38,14.78,48.04,1015.64,2049.00,3411.11,3170.09,3453.32,600.13,603.71,9.20,0000 0000 0000 0000 000000
2015-11-04 01:27:41,0.06,0.47,0.00,19.02,23.62,27.52,14.78,48.13,1015.64,2049.00,3410.03,3169.20,3452.37,599.82,603.39,9.26,0000 0000 0000 0000 000000
2015-11-04 01:32:42,0.05,0.47,0.00,19.02,23.62,27.44,14.76,48.08,1015.65,2049.00,3408.88,3168.36,3451.40,599.76,603.53,9.31,0000 0000 0000 0000 000000
2015-11-04 01:37:44,0.06,0.48,0.00,19.02,23.62,27.42,14.68,48.11,1015.67,2049.00,3407.68,3167.50,3450.47,599.53,603.12,9.36,0000 0000 0000 0000 000000
2015-11-04 01:42:45,0.05,0.48,0.00,19.02,23.62,27.47,14.82,48.17,1015.77,2049.00,3406.43,3166.58,3449.58,600.04,603.70,9.41,0000 0000 0000 0000 000000
2015-11-04 01:47:46,0.05,0.48,0.00,19.02,23.62,27.39,14.73,48.13,1016.04,2049.00,3405.19,3165.68,3448.47,599.82,603.71,9.46,0000 0000 0000 0000 000000
2015-11-04 01:52:47,0.04,0.48,0.00,19.02,23.62,27.45,14.77,47.98,1016.12,2049.00,3404.18,3164.80,3447.51,599.62,603.49,9.51,0000 0000 0000 0000 000000
2015-11-04 01:57:48,0.05,0.49,0.00,19.02,23.62,27.43,14.74,48.18,1016.13,2049.00,3402.79,3163.93,3446.55,600.09,603.91,9.56,0000 0000 0000 0000 000000
2015-11-04 02:02:50,0.06,0.49,0.00,19.03,23.62,27.47,14.79,48.28,1016.13,2049.00,3401.50,3162.95,3445.50,600.01,603.89,9.61,0000 0000 0000 0000 000000
2015-11-04 02:07:51,0.15,0.50,0.00,19.02,23.62,27.49,14.78,48.06,1016.13,2049.00,3399.51,3160.66,3443.10,599.71,603.56,9.66,0000 0000 0000 0000 000000
2015-11-04 02:12:52,0.08,0.50,0.00,19.02,23.62,27.45,14.72,48.22,1016.13,2049.00,3397.70,3158.84,3441.27,599.42,603.20,9.71,0000 0000 0000 0000 000000
2015-11-04 02:17:54,0.06,0.51,0.00,19.03,23.62,27.49,14.86,48.24,1016.16,2049.00,3396.18,3157.74,3440.13,599.90,603.73,9.76,0000 0000 0000 0000 000000
2015-11-04 02:22:55,0.07,0.51,0.00,19.04,23.62,27.47,14.75,48.13,1016.20,2049.00,3394.65,3156.73,3439.07,599.61,603.52,9.81,0000 0000 0000 0000 000000
2015-11-04 02:27:56,0.06,0.51,0.00,19.04,23.62,27.50,14.79,48.23,1016.26,2049.00,3393.19,3155.66,3437.94,600.28,604.11,9.86,0000 0000 0000 0000 000000
2015-11-04 02:32:58,0.07,0.52,0.00,19.03,23.62,27.49,14.76,48.33,1016.41,2049.00,3391.73,3154.66,3436.85,599.68,603.69,9.91,0000 0000 0000 0000 000000
2015-11-04 02:37:59,0.06,0.52,0.00,19.04,23.62,27.47,14.78,48.33,1016.52,2049.00,3390.47,3153.64,3435.72,600.42,604.48,9.96,0000 0000 0000 0000 000000
2015-11-04 02:43:00,0.06,0.52,0.00,19.05,23.62,27.49,14.72,48.33,1016.51,2049.00,3389.21,3152.62,3434.56,599.68,603.68,10.01,0000 0000 0000 0000 000000
2015-11-04 02:48:01,0.03,0.53,0.00,19.06,23.62,27.48,14.75,48.39,1016.58,2049.00,3388.05,3151.89,3433.68,599.70,603.68,10.06,0000 0000 0000 0000 000000
2015-11-04 02:53:03,0.05,0.53,0.00,19.07,23.62,27.46,14.67,48.11,1016.62,2049.00,3386.98,3151.02,3432.80,599.30,603.45,10.11,0000 0000 0000 0000 000000
2015-11-04 02:58:04,0.05,0.53,0.00,19.07,23.62,27.45,14.84,48.21,1016.62,2049.00,3385.91,3150.15,3431.95,600.42,604.48,10.16,0000 0000 0000 0000 000000
2015-11-04 03:03:05,0.05,0.53,0.00,19.07,23.62,27.47,14.85,48.42,1016.63,2049.00,3384.86,3149.43,3431.08,600.02,604.08,10.21,0000 0000 0000 0000 000000
2015-11-04 03:08:07,0.06,0.54,0.00,19.09,23.63,27.50,14.78,48.20,1016.65,2049.00,3383.76,3148.59,3430.16,600.17,603.89,10.26,0000 0000 0000 0000 000000
2015-11-04 03:13:08,0.04,0.54,0.00,19.09,23.63,27.45,14.76,48.24,1016.82,2048.99,3382.71,3147.77,3429.24,599.43,603.51,10.31,0000 0000 0000 0000 000000
2015-11-04 03:18:09,0.05,0.54,0.00,19.09,23.64,27.47,14.82,48.32,1017.04,2048.99,3381.54,3146.92,3428.30,599.80,604.02,10.36,0000 0000 0000 0000 000000
2015-11-04 03:23:11,0.05,0.54,0.00,19.11,23.64,27.41,14.84,48.27,1017.07,2048.99,3380.22,3146.01,3427.40,600.10,604.28,10.41,0000 0000 0000 0000 000000
2015-11-04 03:28:12,0.05,0.55,0.00,19.12,23.65,27.47,14.82,48.58,1017.10,2048.99,3379.17,3145.11,3426.42,599.97,604.17,10.46,0000 0000 0000 0000 000000
2015-11-04 03:33:14,0.06,0.55,0.00,19.12,23.65,27.48,14.77,48.52,1017.10,2048.99,3377.81,3144.18,3425.45,600.15,604.25,10.51,0000 0000 0000 0000 000000
2015-11-04 03:38:15,0.06,0.55,0.00,19.12,23.65,27.41,14.78,48.79,1017.14,2048.99,3376.62,3143.24,3424.28,599.99,604.37,10.56,0000 0000 0000 0000 000000
2015-11-04 03:43:16,0.07,0.56,0.00,19.12,23.65,27.48,14.85,48.77,1017.29,2048.98,3374.98,3142.11,3423.10,600.21,604.65,10.61,0000 0000 0000 0000 000000
2015-11-04 03:48:18,0.10,0.56,0.00,19.12,23.65,27.51,14.82,48.79,1017.53,2048.98,3373.02,3140.72,3421.60,600.10,604.69,10.66,0000 0000 0000 0000 000000
2015-11-04 03:53:19,0.08,0.57,0.00,19.12,23.65,27.48,14.73,48.38,1017.57,2048.98,3370.83,3139.42,3420.24,599.66,604.14,10.71,0000 0000 0000 0000 000000
2015-11-04 03:58:20,0.08,0.57,0.00,19.12,23.65,27.49,14.72,48.23,1017.59,2048.98,3368.81,3138.07,3418.82,599.98,604.57,10.76,0000 0000 0000 0000 000000
2015-11-04 04:03:21,0.08,0.57,0.00,19.12,23.65,27.53,14.83,48.36,1017.59,2048.98,3366.87,3136.79,3417.46,600.01,604.62,10.81,0000 0000 0000 0000 000000
2015-11-04 04:08:22,0.08,0.58,0.00,19.12,23.65,27.45,14.85,48.52,1017.59,2048.97,3365.13,3135.59,3416.01,600.21,604.74,10.86,0000 0000 0000 0000 000000
2015-11-04 04:13:24,0.07,0.58,0.00,19.13,23.65,27.47,14.78,48.24,1017.59,2048.97,3363.56,3134.58,3414.64,599.93,604.44,10.91,0000 0000 0000 0000 000000
2015-11-04 04:18:25,0.07,0.59,0.00,19.12,23.65,27.51,14.82,48.23,1017.59,2048.96,3361.76,3133.39,3413.29,599.92,604.39,10.96,0000 0000 0000 0000 000000
2015-11-04 04:23:26,0.08,0.59,0.00,19.12,23.65,27.54,14.75,48.41,1017.59,2048.96,3359.78,3132.14,3412.01,599.93,604.49,11.01,0000 0000 0000 0000 000000
2015-11-04 04:28:28,0.09,0.60,0.00,19.12,23.65,27.49,14.80,48.27,1017.62,2048.95,3357.64,3130.66,3410.61,600.04,604.65,11.06,0000 0000 0000 0000 000000
2015-11-04 04:33:29,0.08,0.60,0.00,19.12,23.65,27.46,14.82,48.38,1017.67,2048.96,3355.60,3129.39,3409.28,600.03,604.61,11.11,0000 0000 0000 0000 000000
2015-11-04 04:38:30,0.08,0.60,0.00,19.13,23.66,27.47,14.81,48.25,1017.85,2048.96,3353.72,3128.14,3407.91,599.91,604.64,11.16,0000 0000 0000 0000 000000
2015-11-04 04:43:32,0.09,0.61,0.00,19.12,23.67,27.56,14.81,48.24,1018.00,2048.97,3351.82,3126.83,3406.54,599.98,604.77,11.21,0000 0000 0000 0000 000000
2015-11-04 04:48:33,0.08,0.61,0.00,19.13,23.67,27.47,14.79,48.17,1018.03,2048.98,3350.09,3125.61,3405.16,600.19,604.93,11.26,0000 0000 0000 0000 000000
2015-11-04 04:53:34,0.07,0.62,0.00,19.13,23.67,27.48,14.82,48.42,1018.05,2048.83,3348.24,3124.27,3403.54,599.85,604.62,11.31,0000 0000 0000 0000 000000
2015-11-04 04:58:35,0.09,0.62,0.00,19.13,23.67,27.49,14.86,48.36,1018.06,2048.69,3346.13,3122.80,3401.99,600.32,605.11,11.36,0000 0000 0000 0000 000000
2015-11-04 05:03:37,0.08,0.63,0.00,19.12,23.67,27.49,14.79,48.42,1018.07,2048.62,3343.97,3121.48,3400.66,599.67,604.55,11.41,0000 0000 0000 0000 000000
2015-11-04 05:08:38,0.07,0.63,0.00,19.12,23.67,27.58,14.81,48.23,1018.08,2048.56,3342.14,3120.29,3399.33,599.94,604.84,11.46,0000 0000 0000 0000 000000
2015-11-04 05:13:40,0.06,0.63,0.00,19.12,23.67,27.52,14.76,48.45,1018.08,2048.52,3340.34,3119.08,3398.04,600.02,604.84,11.52,0000 0000 0000 0000 000000
2015-11-04 05:18:41,0.07,0.64,0.00,19.11,23.67,27.44,14.89,48.38,1018.09,2048.59,3338.57,3117.92,3396.84,600.24,605.01,11.57,0000 0000 0000 0000 000000
2015-11-04 05:23:42,0.09,0.64,0.00,19.10,23.67,27.53,14.80,48.41,1018.08,2048.52,3336.69,3116.69,3395.47,599.88,604.63,11.62,0000 0000 0000 0000 000000
2015-11-04 05:28:44,0.07,0.64,0.00,19.11,23.65,27.54,14.81,48.43,1018.09,2048.34,3334.38,3115.23,3393.87,600.34,605.25,11.67,0000 0000 0000 0000 000000
2015-11-04 05:33:45,0.12,0.65,0.00,19.09,23.65,27.53,14.83,48.36,1018.11,2048.58,3332.15,3113.75,3392.36,600.26,605.15,11.72,0000 0000 0000 0000 000000
2015-11-04 05:38:46,0.08,0.65,0.00,19.09,23.65,27.58,14.72,48.20,1018.32,2048.45,3329.98,3112.27,3390.85,599.94,605.06,11.77,0000 0000 0000 0000 000000
2015-11-04 05:43:47,0.11,0.66,0.00,19.09,23.65,27.53,14.91,48.58,1018.46,2048.63,3327.80,3110.87,3389.43,600.08,605.08,11.82,0000 0000 0000 0000 000000
2015-11-04 05:48:48,0.11,0.67,0.00,19.07,23.63,27.56,14.81,48.53,1018.49,2048.87,3325.58,3109.49,3388.02,599.85,605.03,11.87,0000 0000 0000 0000 000000
2015-11-04 05:53:50,0.08,0.67,0.00,19.08,23.62,27.55,14.77,48.35,1018.56,2048.92,3323.64,3108.25,3386.68,599.88,605.08,11.92,0000 0000 0000 0000 000000
2015-11-04 05:58:51,0.09,0.68,0.00,19.07,23.62,27.55,14.84,48.57,1018.57,2048.88,3321.70,3106.88,3385.22,600.03,605.28,11.97,0000 0000 0000 0000 000000
2015-11-04 06:03:53,0.06,0.68,0.00,19.07,23.62,27.55,14.79,48.67,1018.58,2048.91,3320.19,3105.81,3383.99,600.10,605.33,12.02,0000 0000 0000 0000 000000
2015-11-04 06:08:54,0.04,0.68,0.00,19.07,23.62,27.53,14.84,48.65,1018.60,2048.91,3318.92,3104.96,3383.05,600.00,605.30,12.07,0000 0000 0000 0000 000000
2015-11-04 06:13:55,0.06,0.69,0.00,19.07,23.62,27.56,14.85,48.52,1018.65,2048.93,3317.75,3104.08,3382.15,600.09,605.36,12.12,0000 0000 0000 0000 000000
2015-11-04 06:18:57,0.06,0.69,0.00,19.07,23.62,27.54,14.93,48.53,1018.65,2048.95,3316.66,3103.22,3381.22,599.91,604.92,12.17,0000 0000 0000 0000 000000
2015-11-04 06:23:58,0.05,0.69,0.00,19.07,23.62,27.51,14.82,48.38,1018.60,2048.97,3315.65,3102.43,3380.38,600.27,605.51,12.22,0000 0000 0000 0000 000000
2015-11-04 06:28:59,0.05,0.69,0.00,19.07,23.62,27.53,14.90,48.59,1018.63,2048.92,3314.25,3101.45,3379.34,600.46,605.64,12.27,0000 0000 0000 0000 000000
2015-11-04 06:34:01,0.07,0.70,0.00,19.05,23.62,27.52,14.78,48.31,1018.75,2048.91,3312.84,3100.54,3378.39,599.91,605.24,12.32,0000 0000 0000 0000 000000
2015-11-04 06:39:02,0.06,0.70,0.00,19.04,23.62,27.52,14.85,48.55,1018.91,2048.94,3311.59,3099.61,3377.44,600.00,605.48,12.37,0000 0000 0000 0000 000000
2015-11-04 06:44:04,0.05,0.70,0.00,19.04,23.62,27.52,14.84,48.44,1019.02,2048.94,3310.35,3098.83,3376.50,599.78,605.31,12.42,0000 0000 0000 0000 000000
2015-11-04 06:49:05,0.05,0.71,0.00,19.03,23.62,27.44,14.89,48.40,1019.06,2048.96,3309.14,3097.92,3375.61,600.37,605.85,12.47,0000 0000 0000 0000 000000
2015-11-04 06:54:07,0.06,0.71,0.00,19.02,23.62,27.52,14.75,48.56,1019.06,2048.97,3307.88,3096.98,3374.60,600.02,605.69,12.52,0000 0000 0000 0000 000000
2015-11-04 06:59:08,0.06,0.71,0.00,19.02,23.62,27.49,14.81,48.63,1019.06,2048.94,3306.47,3095.98,3373.49,599.69,605.28,12.57,0000 0000 0000 0000 000000
2015-11-04 07:04:10,0.07,0.72,0.00,19.02,23.62,27.51,14.84,48.63,1019.07,2048.95,3304.85,3094.89,3372.36,599.91,605.58,12.62,0000 0000 0000 0000 000000
2015-11-04 07:09:11,0.09,0.72,0.00,19.02,23.62,27.48,14.88,48.67,1019.08,2048.95,3303.16,3093.66,3371.05,599.89,605.55,12.67,0000 0000 0000 0000 000000
2015-11-04 07:14:13,0.10,0.73,0.00,19.02,23.62,27.49,14.87,48.76,1019.10,2048.90,3300.83,3092.05,3369.27,599.94,605.71,12.72,0000 0000 0000 0000 000000
2015-11-04 07:19:14,0.11,0.73,0.00,19.02,23.61,27.44,14.81,48.67,1019.23,2048.95,3298.28,3090.40,3367.55,600.04,605.75,12.77,0000 0000 0000 0000 000000
2015-11-04 07:24:15,0.11,0.74,0.00,19.02,23.60,27.46,14.81,48.66,1019.31,2048.95,3295.71,3088.71,3365.80,599.93,605.68,12.82,0000 0000 0000 0000 000000
2015-11-04 07:29:17,0.10,0.74,0.00,19.02,23.60,27.43,14.76,48.54,1019.52,2048.98,3293.31,3087.22,3364.19,599.83,605.91,12.87,0000 0000 0000 0000 000000
2015-11-04 07:34:18,0.10,0.75,0.00,19.02,23.60,27.43,14.77,48.46,1019.55,2048.96,3291.19,3085.76,3362.67,600.02,605.67,12.92,0000 0000 0000 0000 000000
2015-11-04 07:39:19,0.08,0.75,0.00,19.02,23.60,27.49,14.83,48.46,1019.55,2048.96,3289.29,3084.43,3361.12,599.90,605.80,12.97,0000 0000 0000 0000 000000
2015-11-04 07:44:20,0.09,0.76,0.00,19.02,23.59,27.45,14.92,48.58,1019.56,2048.96,3287.33,3083.05,3359.70,600.20,606.20,13.02,0000 0000 0000 0000 000000
2015-11-04 07:49:22,0.08,0.76,0.00,19.02,23.59,27.43,14.95,48.77,1019.56,2048.97,3285.37,3081.80,3358.41,600.15,606.15,13.07,0000 0000 0000 0000 000000
2015-11-04 07:54:23,0.07,0.76,0.00,19.02,23.57,27.46,14.81,48.65,1019.64,2048.99,3283.64,3080.71,3357.24,600.18,606.13,13.12,0000 0000 0000 0000 000000
2015-11-04 07:59:25,0.08,0.77,0.00,19.00,23.57,27.47,14.81,48.65,1019.89,2048.96,3281.86,3079.47,3355.87,599.95,606.08,13.17,0000 0000 0000 0000 000000
2015-11-04 08:04:26,0.07,0.77,0.00,19.00,23.57,27.43,14.82,48.62,1019.95,2048.98,3280.27,3078.34,3354.73,600.00,606.10,13.22,0000 0000 0000 0000 000000
2015-11-04 08:09:27,0.07,0.78,0.00,18.99,23.57,27.47,14.92,48.88,1020.03,2048.99,3278.69,3077.34,3353.56,600.19,606.44,13.27,0000 0000 0000 0000 000000
2015-11-04 08:14:29,0.06,0.78,0.00,18.99,23.57,27.46,14.82,48.61,1020.03,2048.98,3277.12,3076.23,3352.42,600.00,606.26,13.32,0000 0000 0000 0000 000000
2015-11-04 08:19:30,0.07,0.78,0.00,18.99,23.57,27.37,14.85,48.52,1020.04,2048.97,3275.63,3075.11,3351.20,600.02,606.33,13.37,0000 0000 0000 0000 000000
2015-11-04 08:24:31,0.06,0.79,0.00,18.99,23.57,27.42,14.80,48.36,1020.06,2048.98,3274.27,3074.13,3350.07,599.69,605.95,13.42,0000 0000 0000 0000 000000
2015-11-04 08:29:32,0.06,0.79,0.00,18.99,23.57,27.46,14.87,48.27,1020.13,2048.97,3272.92,3073.17,3349.06,599.77,606.03,13.47,0000 0000 0000 0000 000000
2015-11-04 08:34:34,0.06,0.79,0.00,18.99,23.57,27.42,14.88,48.52,1020.27,2048.98,3271.73,3072.32,3348.13,599.90,606.28,13.52,0000 0000 0000 0000 000000
2015-11-04 08:39:35,0.06,0.80,0.00,18.99,23.57,27.48,14.79,48.65,1020.50,2048.99,3270.54,3071.43,3347.27,599.47,605.98,13.57,0000 0000 0000 0000 000000
2015-11-04 08:44:36,0.05,0.80,0.00,18.99,23.57,27.45,14.85,48.64,1020.52,2048.97,3269.26,3070.57,3346.16,600.35,606.86,13.62,0000 0000 0000 0000 000000
2015-11-04 08:49:37,0.08,0.80,0.00,18.99,23.57,27.45,14.87,48.68,1020.53,2048.96,3267.79,3069.47,3344.87,599.91,606.33,13.67,0000 0000 0000 0000 000000
2015-11-04 08:54:38,0.07,0.81,0.00,18.99,23.57,27.43,14.85,48.60,1020.54,2048.97,3266.10,3068.06,3343.33,599.81,606.26,13.73,0000 0000 0000 0000 000000
2015-11-04 08:59:40,0.06,0.81,0.00,18.99,23.57,27.44,14.77,48.50,1020.54,2048.98,3264.84,3067.12,3342.31,599.63,606.18,13.78,0000 0000 0000 0000 000000
2015-11-04 09:04:41,0.06,0.81,0.00,18.98,23.56,27.41,14.85,48.52,1020.56,2048.98,3263.69,3066.32,3341.29,599.96,606.45,13.83,0000 0000 0000 0000 000000
2015-11-04 09:09:42,0.05,0.82,0.00,18.98,23.55,27.41,14.86,48.64,1020.85,2048.97,3262.60,3065.42,3340.14,600.12,606.86,13.88,0000 0000 0000 0000 000000
2015-11-04 09:14:44,0.05,0.82,0.00,18.98,23.55,27.43,14.75,48.66,1020.98,2048.97,3261.22,3064.45,3339.17,600.03,606.88,13.93,0000 0000 0000 0000 000000
2015-11-04 09:19:45,0.05,0.82,0.00,18.98,23.55,27.39,14.92,48.73,1021.01,2048.96,3260.06,3063.73,3338.29,600.37,607.23,13.98,0000 0000 0000 0000 000000
2015-11-04 09:24:46,0.04,0.83,0.00,18.98,23.54,27.43,14.88,48.50,1021.01,2048.98,3259.03,3062.95,3337.44,599.85,606.60,14.03,0000 0000 0000 0000 000000
2015-11-04 09:29:47,0.06,0.83,0.00,18.97,23.54,27.42,14.85,48.49,1021.01,2048.98,3257.84,3062.07,3336.60,600.11,607.03,14.08,0000 0000 0000 0000 000000
2015-11-04 09:34:48,0.06,0.83,0.00,18.96,23.53,27.43,14.94,48.63,1021.05,2048.98,3256.60,3061.20,3335.72,600.11,607.03,14.13,0000 0000 0000 0000 000000
2015-11-04 09:39:50,0.05,0.83,0.00,18.95,23.52,27.40,14.88,48.67,1021.13,2048.98,3255.58,3060.32,3334.84,600.11,607.10,14.18,0000 0000 0000 0000 000000
2015-11-04 09:44:51,0.05,0.84,0.00,18.95,23.52,27.45,14.88,48.69,1021.43,2048.98,3254.31,3059.57,3333.95,600.04,607.28,14.23,0000 0000 0000 0000 000000
2015-11-04 09:49:52,0.05,0.84,0.00,18.94,23.52,27.46,14.90,48.68,1021.50,2048.99,3253.12,3058.74,3332.95,600.12,607.40,14.28,0000 0000 0000 0000 000000
2015-11-04 09:54:53,0.06,0.84,0.00,18.94,23.52,27.43,14.87,48.53,1021.50,2048.99,3251.82,3057.79,3331.95,599.70,606.84,14.33,0000 0000 0000 0000 000000
2015-11-04 09:59:55,0.06,0.85,0.00,18.94,23.50,27.43,14.87,48.42,1021.50,2048.98,3250.66,3056.90,3330.94,600.34,607.59,14.38,0000 0000 0000 0000 000000
2015-11-04 10:04:56,0.05,0.85,0.00,18.94,23.50,27.39,14.87,48.57,1021.50,2048.98,3249.55,3056.05,3329.95,600.24,607.43,14.43,0000 0000 0000 0000 000000
2015-11-04 10:09:57,0.05,0.85,0.00,18.94,23.50,27.42,14.89,48.62,1021.52,2048.99,3248.49,3055.26,3329.06,599.73,607.12,14.48,0000 0000 0000 0000 000000
2015-11-04 10:14:59,0.06,0.86,0.00,18.93,23.49,27.35,14.87,48.56,1021.56,2048.98,3246.97,3054.28,3328.19,599.90,607.21,14.53,0000 0000 0000 0000 000000
2015-11-04 10:20:00,0.05,0.86,0.00,18.92,23.47,27.37,14.91,48.55,1021.66,2048.99,3245.90,3053.56,3327.35,600.31,607.67,14.58,0000 0000 0000 0000 000000
2015-11-04 10:25:02,0.03,0.86,0.00,18.92,23.47,27.35,14.85,48.31,1021.63,2048.99,3244.91,3052.92,3326.66,600.03,607.38,14.63,0000 0000 0000 0000 000000
2015-11-04 10:30:03,0.05,0.86,0.00,18.92,23.46,27.37,14.84,48.52,1021.67,2048.99,3243.84,3052.07,3325.80,599.58,607.05,14.68,0000 0000 0000 0000 000000
2015-11-04 10:35:05,0.05,0.87,0.00,18.92,23.45,27.39,14.86,48.40,1021.83,2048.99,3242.80,3051.26,3325.01,599.97,607.40,14.73,0000 0000 0000 0000 000000
2015-11-04 10:40:06,0.05,0.87,0.00,18.91,23.45,27.41,14.89,48.42,1021.96,2048.99,3241.70,3050.62,3324.11,599.77,607.32,14.78,0000 0000 0000 0000 000000
2015-11-04 10:45:07,0.04,0.87,0.00,18.89,23.43,27.38,14.97,48.57,1021.98,2048.99,3240.65,3049.90,3323.34,600.45,608.12,14.83,0000 0000 0000 0000 000000
2015-11-04 10:50:09,0.04,0.87,0.00,18.89,23.42,27.38,14.92,48.49,1021.99,2048.99,3239.85,3049.07,3322.50,600.17,607.81,14.88,0000 0000 0000 0000 000000
2015-11-04 10:55:10,0.06,0.88,0.00,18.89,23.41,27.35,14.86,48.42,1021.99,2048.99,3238.67,3048.32,3321.72,599.79,607.43,14.93,0000 0000 0000 0000 000000
2015-11-04 11:00:11,0.04,0.88,0.00,18.88,23.40,27.35,14.87,48.47,1022.00,2048.99,3237.53,3047.69,3320.98,599.86,607.54,14.98,0000 0000 0000 0000 000000
2015-11-04 11:05:13,0.04,0.88,0.00,18.87,23.40,27.35,14.94,48.66,1022.00,2048.99,3236.37,3046.93,3320.11,600.02,607.65,15.03,0000 0000 0000 0000 000000
2015-11-04 11:10:14,0.06,0.88,0.00,18.85,23.39,27.31,14.84,48.67,1022.02,2049.00,3235.24,3046.05,3319.27,600.17,607.99,15.08,0000 0000 0000 0000 000000
2015-11-04 11:15:16,0.05,0.89,0.00,18.84,23.37,27.30,14.98,48.50,1022.01,2049.01,3234.10,3045.12,3318.27,600.03,607.79,15.13,0000 0000 0000 0000 000000
2015-11-04 11:20:17,0.05,0.89,0.00,18.83,23.37,27.33,14.90,48.58,1022.05,2049.00,3233.18,3044.53,3317.60,599.96,607.55,15.18,0000 0000 0000 0000 000000
2015-11-04 11:25:18,0.03,0.89,0.00,18.82,23.37,27.28,14.92,48.63,1022.24,2049.02,3232.19,3043.94,3316.89,600.09,608.11,15.23,0000 0000 0000 0000 000000
2015-11-04 11:30:19,0.05,0.89,0.00,18.81,23.37,27.31,14.89,48.61,1022.26,2049.02,3231.39,3043.13,3316.05,599.75,607.73,15.28,0000 0000 0000 0000 000000
2015-11-04 11:35:21,0.05,0.90,0.00,18.79,23.35,27.26,14.87,48.61,1022.29,2049.02,3230.43,3042.61,3315.47,599.88,607.87,15.33,0000 0000 0000 0000 000000
2015-11-04 11:40:22,0.03,0.90,0.00,18.79,23.35,27.32,14.85,48.63,1022.46,2049.02,3229.42,3041.99,3314.86,600.01,608.01,15.38,0000 0000 0000 0000 000000
2015-11-04 11:45:23,0.05,0.90,0.00,18.77,23.34,27.30,14.90,48.50,1022.46,2049.02,3228.51,3041.17,3314.07,599.80,607.99,15.43,0000 0000 0000 0000 000000
2015-11-04 11:50:25,0.04,0.90,0.00,18.77,23.32,27.28,14.91,48.73,1022.48,2049.05,3227.70,3040.75,3313.41,599.87,608.03,15.48,0000 0000 0000 0000 000000
2015-11-04 11:55:26,0.03,0.91,0.00,18.77,23.32,27.26,14.96,48.67,1022.48,2049.05,3226.74,3040.03,3312.90,600.05,608.20,15.53,0000 0000 0000 0000 000000
2015-11-04 12:00:27,0.06,0.91,0.00,18.74,23.30,27.28,14.91,48.82,1022.49,2049.11,3225.76,3039.49,3312.09,600.19,608.41,15.58,0000 0000 0000 0000 000000
2015-11-04 12:05:28,0.05,0.91,0.00,18.74,23.29,27.28,14.87,48.83,1022.53,2049.29,3224.83,3038.84,3311.57,600.00,608.20,15.63,0000 0000 0000 0000 000000
2015-11-04 12:10:29,0.05,0.91,0.00,18.73,23.29,27.26,14.93,48.83,1022.53,2049.37,3223.80,3038.04,3310.78,599.94,608.30,15.68,0000 0000 0000 0000 000000
2015-11-04 12:15:31,0.05,0.92,0.00,18.72,23.28,27.24,14.88,48.84,1022.61,2049.55,3222.96,3037.32,3310.01,599.96,608.29,15.73,0000 0000 0000 0000 000000
2015-11-04 12:20:32,0.04,0.92,0.00,18.71,23.27,27.22,14.95,48.82,1022.80,2049.58,3222.09,3036.73,3309.23,600.05,608.54,15.78,0000 0000 0000 0000 000000
2015-11-04 12:25:33,0.02,0.92,0.00,18.69,23.27,27.25,14.86,48.80,1022.89,2049.36,3221.53,3036.02,3308.23,599.93,608.53,15.83,0000 0000 0000 0000 000000
2015-11-04 12:30:35,0.08,0.92,0.00,18.69,23.27,27.23,14.86,48.90,1022.94,2049.58,3220.46,3035.40,3307.87,599.78,608.37,15.88,0000 0000 0000 0000 000000
2015-11-04 12:35:36,0.02,0.93,0.00,18.68,23.25,27.23,14.92,48.81,1022.96,2049.62,3219.62,3034.89,3307.06,600.24,608.75,15.94,0000 0000 0000 0000 000000
2015-11-04 12:40:37,0.07,0.93,0.00,18.67,23.24,27.21,14.87,48.86,1022.96,2049.79,3218.83,3034.09,3306.48,599.89,608.56,15.99,0000 0000 0000 0000 000000
2015-11-04 12:45:38,0.03,0.93,0.00,18.64,23.24,27.21,14.99,49.08,1022.97,2049.68,3218.06,3033.69,3305.67,600.35,609.00,16.04,0000 0000 0000 0000 000000
2015-11-04 12:50:40,0.04,0.93,0.00,18.64,23.23,27.20,14.91,49.01,1022.97,2049.82,3217.40,3033.03,3305.03,599.96,608.75,16.09,0000 0000 0000 0000 000000
2015-11-04 12:55:41,0.05,0.94,0.00,18.64,23.22,27.15,14.94,48.98,1023.08,2049.84,3216.22,3032.39,3304.67,600.02,608.82,16.14,0000 0000 0000 0000 000000